Wharton, TX

10:04 AM CDT on April 26, 2017 (GMT -0500)
Wharton Regional

Weather History for KARM - April, 2013

Change the Weather History Date:

Friday, April 5, 2013

  Actual Average (KPSX) Record (KPSX)
Temperature  
Mean Temperature 56 °F -  
Max Temperature 72 °F 74 °F 93 °F (1982)
Min Temperature 41 °F 56 °F 42 °F (1973)
Degree Days  
Heating Degree Days 8    
Growing Degree Days 6 (Base 50)    
Moisture  
Dew Point 45 °F    
Average Humidity 71    
Maximum Humidity 97    
Minimum Humidity 41    
Precipitation  
Precipitation 0.00 in - - ()
Sea Level Pressure  
Sea Level Pressure 30.19 in    
Wind  
Wind Speed 5 mph (NE)    
Max Wind Speed 15 mph    
Max Gust Speed -    
Visibility 10 miles    
Events      
Averages and records for this station are not official NWS values.
T = Trace of Precipitation, MM = Missing Value Source: NWS Daily Summary

Daily Weather History Graph

Daily Weather History Graph

Search for Another Location

Airport or City:

Trip Planner

Search our weather history database for the weather conditions in past years. The results will help you decide how hot, cold, wet, or windy it might be!

Date:

Astronomy

Apr. 05, 2013 Rise Set
Actual Time 7:09 AM CDT 7:45 PM CDT
Civil Twilight 6:45 AM CDT 8:09 PM CDT
Nautical Twilight 6:17 AM CDT 8:37 PM CDT
Astronomical Twilight 5:48 AM CDT 9:06 PM CDT
Moon 3:55 AM CDT (4/5) 3:30 PM CDT (4/5)
Length of Visible Light 13h 24m
Length of Day
12h 36m
Waning Crescent, 23% of the Moon is Illuminated
Apr 5
Waning Crescent
Apr 10
New
Apr 18
First Quarter
Apr 25
Full
May 2
Last Quarter

Hourly Weather History & Observations

Time (CDT) Temp. Windchill Dew Point Humidity Pressure Visibility Wind Dir Wind Speed Gust Speed Precip Events Conditions
12:15 AM 48.9 °F - 42.1 °F 77% 30.21 in 10.0 mi North 9.2 mph - N/A   Overcast
12:35 AM 48.9 °F - 41.9 °F 77% 30.21 in 10.0 mi North 10.4 mph - N/A   Mostly Cloudy
12:55 AM 48.7 °F - 41.5 °F 76% 30.22 in 10.0 mi North 8.1 mph - N/A   Overcast
1:15 AM 48.2 °F - 41.5 °F 78% 30.22 in 10.0 mi NNE 8.1 mph - N/A   Overcast
1:35 AM 47.7 °F - 41.4 °F 79% 30.23 in 10.0 mi North 4.6 mph - N/A   Mostly Cloudy
1:55 AM 47.3 °F - 41.5 °F 80% 30.22 in 10.0 mi North 5.8 mph - N/A   Mostly Cloudy
2:15 AM 46.2 °F 44.1 °F 41.4 °F 83% 30.21 in 10.0 mi North 4.6 mph - N/A   Scattered Clouds
2:35 AM 45.5 °F 43.2 °F 41.2 °F 85% 30.21 in 10.0 mi NNE 4.6 mph - N/A   Clear
2:55 AM 44.8 °F 42.4 °F 41.0 °F 87% 30.21 in 10.0 mi North 4.6 mph - N/A   Clear
3:15 AM 44.8 °F 43.3 °F 41.0 °F 87% 30.21 in 10.0 mi North 3.5 mph - N/A   Clear
3:35 AM 44.6 °F 43.1 °F 41.0 °F 87% 30.20 in 10.0 mi North 3.5 mph - N/A   Clear
3:55 AM 44.8 °F 42.4 °F 41.2 °F 87% 30.20 in 10.0 mi North 4.6 mph - N/A   Clear
4:15 AM 43.3 °F 41.7 °F 40.5 °F 90% 30.20 in 10.0 mi North 3.5 mph - N/A   Clear
4:35 AM 43.3 °F 40.7 °F 40.6 °F 90% 30.20 in 10.0 mi North 4.6 mph - N/A   Clear
4:55 AM 43.7 °F 42.1 °F 41.0 °F 90% 30.19 in 10.0 mi North 3.5 mph - N/A   Clear
5:15 AM 43.9 °F 41.3 °F 41.2 °F 90% 30.21 in 10.0 mi West 4.6 mph - N/A   Clear
5:35 AM 43.5 °F 40.1 °F 41.5 °F 93% 30.23 in 10.0 mi West 5.8 mph - N/A   Clear
5:55 AM 43.7 °F 41.1 °F 41.9 °F 93% 30.24 in 10.0 mi West 4.6 mph - N/A   Clear
6:15 AM 43.2 °F - 41.2 °F 93% 30.24 in 10.0 mi Calm Calm - N/A   Clear
6:35 AM 43.0 °F - 41.2 °F 93% 30.24 in 7.0 mi Calm Calm - N/A   Clear
6:55 AM 41.9 °F - 40.5 °F 95% 30.24 in 7.0 mi Calm Calm - N/A   Clear
7:15 AM 41.2 °F - 40.1 °F 96% 30.24 in 5.0 mi Calm Calm - N/A   Clear
7:35 AM 41.2 °F 39.2 °F 40.3 °F 97% 30.24 in 4.0 mi North 3.5 mph - N/A   Clear
7:55 AM 43.2 °F - 42.3 °F 97% 30.25 in 4.0 mi Calm Calm - N/A   Clear
8:15 AM 45.1 °F 43.7 °F 44.1 °F 96% 30.26 in 10.0 mi NNW 3.5 mph - N/A   Clear
8:35 AM 47.5 °F - 44.2 °F 89% 30.26 in 10.0 mi North 4.6 mph - N/A   Clear
8:55 AM 49.8 °F - 45.1 °F 84% 30.26 in 10.0 mi North 6.9 mph - N/A   Clear
9:15 AM 51.8 °F - 43.5 °F 73% 30.26 in 10.0 mi North 9.2 mph - N/A   Clear
9:35 AM 53.2 °F - 43.5 °F 70% 30.26 in 10.0 mi North 9.2 mph - N/A   Clear
9:55 AM 54.9 °F - 43.9 °F 66% 30.27 in 10.0 mi NNE 9.2 mph - N/A   Clear
10:15 AM 55.4 °F - 43.5 °F 64% 30.27 in 10.0 mi North 6.9 mph - N/A   Clear
10:35 AM 57.2 °F - 43.2 °F 59% 30.28 in 10.0 mi NE 4.6 mph - N/A   Clear
10:55 AM 57.9 °F - 44.1 °F 60% 30.29 in 10.0 mi NE 4.6 mph - N/A   Clear
11:15 AM 58.3 °F - 44.2 °F 60% 30.29 in 10.0 mi North 5.8 mph - N/A   Clear
11:35 AM 59.2 °F - 44.4 °F 58% 30.28 in 10.0 mi Calm Calm - N/A   Clear
11:55 AM 60.4 °F - 46.0 °F 59% 30.27 in 10.0 mi NNE 5.8 mph - N/A   Clear
12:15 PM 61.3 °F - 45.9 °F 57% 30.27 in 10.0 mi North 6.9 mph - N/A   Clear
12:35 PM 61.9 °F - 46.8 °F 58% 30.26 in 10.0 mi North 4.6 mph - N/A   Clear
12:55 PM 63.9 °F - 47.3 °F 55% 30.24 in 10.0 mi NNE 3.5 mph - N/A   Clear
1:15 PM 64.6 °F - 47.1 °F 53% 30.23 in 10.0 mi ESE 4.6 mph - N/A   Clear
1:35 PM 65.5 °F - 47.7 °F 53% 30.22 in 10.0 mi East 4.6 mph - N/A   Clear
1:55 PM 65.8 °F - 48.6 °F 54% 30.21 in 10.0 mi Calm Calm - N/A   Clear
2:15 PM 66.4 °F - 48.7 °F 53% 30.20 in 10.0 mi Calm Calm - N/A   Clear
2:35 PM 67.1 °F - 48.0 °F 50% 30.19 in 10.0 mi SE 3.5 mph - N/A   Clear
2:55 PM 67.6 °F - 46.2 °F 46% 30.18 in 10.0 mi Calm Calm - N/A   Clear
3:15 PM 68.7 °F - 47.3 °F 46% 30.16 in 10.0 mi Calm Calm - N/A   Clear
3:35 PM 68.9 °F - 47.3 °F 46% 30.15 in 10.0 mi Calm Calm - N/A   Clear
3:55 PM 69.8 °F - 48.2 °F 46% 30.14 in 10.0 mi SSW 3.5 mph - N/A   Clear
4:15 PM 70.9 °F - 48.2 °F 44% 30.13 in 10.0 mi East 8.1 mph - N/A   Clear
4:35 PM 71.1 °F - 47.7 °F 43% 30.12 in 10.0 mi Calm Calm - N/A   Clear
4:55 PM 71.6 °F - 47.8 °F 43% 30.11 in 10.0 mi SE 6.9 mph - N/A   Clear
5:15 PM 71.6 °F - 46.8 °F 41% 30.11 in 10.0 mi South 3.5 mph - N/A   Clear
5:35 PM 72.0 °F - 46.8 °F 41% 30.10 in 10.0 mi East 5.8 mph - N/A   Clear
5:55 PM 71.8 °F - 47.5 °F 42% 30.10 in 10.0 mi ESE 4.6 mph - N/A   Clear
6:15 PM 71.6 °F - 47.5 °F 42% 30.11 in 10.0 mi SSE 4.6 mph - N/A   Clear
6:35 PM 70.9 °F - 47.5 °F 43% 30.11 in 10.0 mi SSE 4.6 mph - N/A   Clear
6:55 PM 70.3 °F - 47.8 °F 45% 30.10 in 10.0 mi SSE 3.5 mph - N/A   Clear
7:15 PM 67.3 °F - 51.8 °F 58% 30.11 in 10.0 mi South 15.0 mph - N/A   Clear
7:35 PM 64.9 °F - 51.4 °F 62% 30.11 in 10.0 mi South 12.7 mph - N/A   Clear
7:55 PM 63.1 °F - 51.1 °F 65% 30.11 in 10.0 mi South 10.4 mph - N/A   Clear
8:15 PM 61.5 °F - 50.9 °F 68% 30.12 in 10.0 mi SSE 8.1 mph - N/A   Clear
8:35 PM 60.3 °F - 50.5 °F 70% 30.12 in 10.0 mi SSE 8.1 mph - N/A   Clear
8:55 PM 58.8 °F - 50.5 °F 74% 30.13 in 10.0 mi SSE 8.1 mph - N/A   Clear
9:15 PM 58.5 °F - 50.7 °F 75% 30.14 in 10.0 mi SSE 6.9 mph - N/A   Clear
9:55 PM 57.0 °F - 50.7 °F 79% 30.15 in 10.0 mi South 5.8 mph - N/A   Clear
10:15 PM 55.6 °F - 50.5 °F 83% 30.15 in 10.0 mi SSE 5.8 mph - N/A   Clear
10:35 PM 55.4 °F - 50.5 °F 84% 30.16 in 10.0 mi Calm Calm - N/A   Clear
10:55 PM 54.3 °F - 50.0 °F 85% 30.15 in 10.0 mi Calm Calm - N/A   Clear
11:15 PM 54.0 °F - 50.2 °F 87% 30.16 in 10.0 mi SSE 3.5 mph - N/A   Clear
11:35 PM 53.6 °F - 50.0 °F 88% 30.14 in 10.0 mi SE 3.5 mph - N/A   Clear
11:55 PM 52.7 °F - 49.6 °F 89% 30.13 in 10.0 mi East 4.6 mph - N/A   Clear